| time (UTC) | temp C | wind direction | speed KPH | gust KPH | rain 1hr cm | rain 24hr cm | rain mn cm | humidity % | barometer mb |
| 20260506022904 | 11 | 226 | 3.2 | 8.0 | 0.00 | 0.05 | 0.00 | 81 | 937.5 |
| 20260506022404 | 11 | 226 | 3.2 | 8.0 | 0.00 | 0.05 | 0.00 | 81 | 937.6 |
| 20260506021903 | 11 | 225 | 3.2 | 4.8 | 0.00 | 0.05 | 0.00 | 81 | 937.6 |
| 20260506021404 | 11 | 224 | 3.2 | 4.8 | 0.00 | 0.05 | 0.00 | 81 | 937.6 |
| 20260506020403 | 11 | 271 | 0.0 | 3.2 | 0.00 | 0.05 | 0.00 | 80 | 937.6 |
| 20260506015903 | 11 | 274 | 0.0 | 0.0 | 0.00 | 0.05 | 0.00 | 80 | 937.6 |
| 20260506015404 | 11 | 275 | 0.0 | 3.2 | 0.00 | 0.05 | 0.00 | 80 | 937.8 |
| 20260506014903 | 11 | 275 | 3.2 | 8.0 | 0.00 | 0.05 | 0.00 | 80 | 937.8 |
| 20260506013903 | 11 | 274 | 3.2 | 8.0 | 0.00 | 0.05 | 0.00 | 79 | 937.9 |
| 20260506013404 | 11 | 210 | 3.2 | 8.0 | 0.00 | 0.05 | 0.00 | 80 | 937.9 |
| 20260506012904 | 11 | 208 | 3.2 | 8.0 | 0.00 | 0.05 | 0.00 | 80 | 937.9 |
| 20260506012404 | 11 | 153 | 3.2 | 8.0 | 0.00 | 0.05 | 0.00 | 80 | 938.0 |
| 20260506011904 | 11 | 115 | 1.6 | 8.0 | 0.00 | 0.05 | 0.00 | 80 | 938.0 |
| 20260506011403 | 11 | 111 | 1.6 | 8.0 | 0.00 | 0.05 | 0.00 | 79 | 938.0 |
| 20260506010903 | 11 | 188 | 1.6 | 3.2 | 0.00 | 0.05 | 0.00 | 79 | 938.0 |
| 20260506010403 | 11 | 201 | 1.6 | 4.8 | 0.00 | 0.05 | 0.00 | 79 | 938.0 |
| 20260506005903 | 11 | 201 | 4.8 | 9.7 | 0.00 | 0.05 | 0.00 | 78 | 938.0 |
| 20260506005403 | 11 | 201 | 4.8 | 9.7 | 0.00 | 0.05 | 0.00 | 78 | 938.1 |
| 20260506004904 | 11 | 207 | 3.2 | 9.7 | 0.00 | 0.05 | 0.00 | 79 | 938.1 |
| 20260506004404 | 11 | 208 | 3.2 | 4.8 | 0.00 | 0.05 | 0.00 | 79 | 938.1 |
| 20260506003904 | 11 | 210 | 3.2 | 4.8 | 0.00 | 0.05 | 0.00 | 79 | 938.2 |
| 20260506003404 | 11 | 211 | 3.2 | 4.8 | 0.00 | 0.05 | 0.00 | 79 | 938.2 |
| 20260506002904 | 11 | 207 | 4.8 | 8.0 | 0.00 | 0.05 | 0.00 | 78 | 938.2 |
| 20260506002403 | 11 | 206 | 4.8 | 8.0 | 0.00 | 0.05 | 0.00 | 78 | 938.5 |
| 20260506001903 | 11 | 208 | 4.8 | 8.0 | 0.00 | 0.05 | 0.00 | 78 | 938.5 |
| 20260506001404 | 11 | 191 | 4.8 | 8.0 | 0.00 | 0.05 | 0.00 | 77 | 938.5 |
| 20260506000903 | 12 | 133 | 3.2 | 9.7 | 0.00 | 0.05 | 0.00 | 77 | 938.7 |
| 20260506000403 | 12 | 182 | 3.2 | 9.7 | 0.00 | 0.05 | 0.00 | 77 | 938.7 |
| 20260505235904 | 12 | 208 | 3.2 | 9.7 | 0.00 | 0.05 | 0.00 | 77 | 938.7 |
| 20260505234904 | 12 | 97 | 3.2 | 8.0 | 0.00 | 0.05 | 0.00 | 76 | 938.5 |
| 20260505234403 | 12 | 212 | 3.2 | 8.0 | 0.00 | 0.05 | 0.00 | 75 | 938.5 |
| 20260505233903 | 12 | 203 | 3.2 | 8.0 | 0.00 | 0.05 | 0.00 | 75 | 938.7 |
| 20260505233404 | 12 | 212 | 3.2 | 8.0 | 0.00 | 0.05 | 0.00 | 75 | 938.7 |
| 20260505232903 | 12 | 186 | 3.2 | 4.8 | 0.00 | 0.05 | 0.00 | 75 | 938.7 |
| 20260505232404 | 12 | 146 | 3.2 | 8.0 | 0.00 | 0.05 | 0.00 | 75 | 938.7 |
| 20260505231403 | 12 | 201 | 8.0 | 9.7 | 0.00 | 0.05 | 0.00 | 76 | 938.7 |
| 20260505230904 | 12 | 229 | 3.2 | 11.3 | 0.00 | 0.05 | 0.00 | 76 | 938.8 |
| 20260505230405 | 12 | 227 | 3.2 | 11.3 | 0.00 | 0.05 | 0.00 | 76 | 938.8 |
| 20260505225903 | 12 | 216 | 6.4 | 8.0 | 0.00 | 0.05 | 0.00 | 77 | 938.8 |
| 20260505225404 | 12 | 116 | 8.0 | 8.0 | 0.00 | 0.05 | 0.00 | 77 | 938.8 |
| 20260505224903 | 12 | 170 | 8.0 | 11.3 | 0.00 | 0.05 | 0.00 | 76 | 938.8 |
| 20260505224404 | 12 | 211 | 8.0 | 11.3 | 0.00 | 0.05 | 0.00 | 77 | 938.8 |
| 20260505223404 | 12 | 211 | 4.8 | 8.0 | 0.00 | 0.05 | 0.00 | 77 | 938.8 |
| 20260505222904 | 12 | 210 | 8.0 | 9.7 | 0.00 | 0.05 | 0.00 | 77 | 938.8 |
| 20260505221403 | 12 | 212 | 4.8 | 9.7 | 0.00 | 0.05 | 0.00 | 77 | 938.9 |
| 20260505220903 | 12 | 194 | 4.8 | 9.7 | 0.00 | 0.05 | 0.00 | 77 | 939.0 |
| 20260505220403 | 12 | 189 | 4.8 | 9.7 | 0.00 | 0.05 | 0.00 | 77 | 939.0 |
| 20260505215903 | 12 | 211 | 8.0 | 8.0 | 0.00 | 0.05 | 0.05 | 77 | 939.0 |
| 20260505215404 | 12 | 212 | 8.0 | 9.7 | 0.00 | 0.05 | 0.05 | 77 | 939.2 |
| 20260505214904 | 12 | 221 | 8.0 | 11.3 | 0.00 | 0.05 | 0.05 | 77 | 939.2 |
| 20260505214403 | 12 | 203 | 8.0 | 11.3 | 0.00 | 0.05 | 0.05 | 77 | 939.2 |
| 20260505212904 | 12 | 211 | 3.2 | 8.0 | 0.00 | 0.05 | 0.05 | 76 | 939.3 |
| 20260505212403 | 12 | 223 | 3.2 | 8.0 | 0.00 | 0.05 | 0.05 | 76 | 939.5 |
| 20260505211404 | 12 | 226 | 1.6 | 4.8 | 0.00 | 0.05 | 0.05 | 77 | 939.5 |
| 20260505210903 | 12 | 217 | 1.6 | 4.8 | 0.00 | 0.05 | 0.05 | 76 | 939.4 |
| 20260505205904 | 12 | 249 | 3.2 | 4.8 | 0.00 | 0.05 | 0.05 | 76 | 939.4 |
| 20260505204904 | 12 | 224 | 8.0 | 9.7 | 0.00 | 0.05 | 0.05 | 75 | 939.4 |
| 20260505203903 | 12 | 225 | 9.7 | 11.3 | 0.00 | 0.05 | 0.05 | 77 | 939.4 |
| 20260505203403 | 12 | 219 | 9.7 | 12.9 | 0.00 | 0.05 | 0.05 | 77 | 939.4 |
| 20260505202904 | 12 | 226 | 9.7 | 12.9 | 0.00 | 0.05 | 0.05 | 77 | 939.4 |
| 20260505202403 | 12 | 224 | 9.7 | 11.3 | 0.00 | 0.05 | 0.05 | 78 | 939.3 |
| 20260505201904 | 12 | 221 | 9.7 | 12.9 | 0.00 | 0.05 | 0.05 | 78 | 939.3 |
| 20260505201403 | 12 | 224 | 9.7 | 14.5 | 0.00 | 0.05 | 0.05 | 77 | 939.3 |
| 20260505200904 | 12 | 219 | 9.7 | 14.5 | 0.00 | 0.05 | 0.05 | 77 | 939.1 |
| 20260505200404 | 12 | 214 | 9.7 | 14.5 | 0.00 | 0.05 | 0.05 | 77 | 939.1 |
| 20260505195904 | 12 | 219 | 8.0 | 12.9 | 0.00 | 0.05 | 0.05 | 78 | 939.1 |
| 20260505195404 | 12 | 221 | 8.0 | 12.9 | 0.00 | 0.05 | 0.05 | 78 | 939.0 |
| 20260505194403 | 12 | 207 | 9.7 | 12.9 | 0.00 | 0.05 | 0.05 | 78 | 939.0 |
| 20260505193904 | 12 | 212 | 9.7 | 12.9 | 0.00 | 0.05 | 0.05 | 78 | 939.0 |
| 20260505193403 | 12 | 217 | 11.3 | 14.5 | 0.00 | 0.05 | 0.05 | 79 | 939.0 |
| 20260505192903 | 12 | 222 | 11.3 | 16.1 | 0.00 | 0.05 | 0.05 | 78 | 939.0 |
| 20260505192404 | 12 | 216 | 11.3 | 16.1 | 0.00 | 0.05 | 0.05 | 79 | 938.8 |
| 20260505191904 | 12 | 220 | 11.3 | 19.3 | 0.00 | 0.05 | 0.05 | 79 | 938.8 |
| 20260505190904 | 12 | 215 | 9.7 | 19.3 | 0.00 | 0.05 | 0.05 | 80 | 938.6 |
| 20260505190403 | 12 | 220 | 9.7 | 11.3 | 0.00 | 0.05 | 0.05 | 81 | 938.6 |
| 20260505185903 | 12 | 215 | 9.7 | 11.3 | 0.00 | 0.05 | 0.05 | 82 | 938.6 |
| 20260505185404 | 12 | 220 | 9.7 | 11.3 | 0.00 | 0.05 | 0.05 | 82 | 938.5 |
| 20260505184903 | 12 | 222 | 9.7 | 12.9 | 0.00 | 0.05 | 0.05 | 83 | 938.5 |
| 20260505184404 | 12 | 216 | 9.7 | 14.5 | 0.00 | 0.05 | 0.05 | 83 | 938.5 |
| 20260505183904 | 12 | 224 | 8.0 | 14.5 | 0.00 | 0.05 | 0.05 | 83 | 938.8 |
| 20260505183403 | 12 | 205 | 8.0 | 14.5 | 0.00 | 0.05 | 0.05 | 83 | 938.8 |
| 20260505182904 | 12 | 221 | 9.7 | 11.3 | 0.00 | 0.05 | 0.05 | 83 | 938.8 |
| 20260505182403 | 12 | 225 | 11.3 | 16.1 | 0.00 | 0.05 | 0.05 | 83 | 938.6 |
| 20260505181903 | 12 | 229 | 9.7 | 19.3 | 0.00 | 0.05 | 0.05 | 83 | 938.6 |
| 20260505181404 | 12 | 223 | 9.7 | 19.3 | 0.00 | 0.05 | 0.05 | 83 | 938.6 |
| 20260505180903 | 12 | 213 | 9.7 | 16.1 | 0.00 | 0.05 | 0.05 | 84 | 938.7 |
| 20260505180404 | 12 | 213 | 11.3 | 14.5 | 0.00 | 0.05 | 0.05 | 84 | 938.7 |
| 20260505175904 | 12 | 235 | 11.3 | 16.1 | 0.00 | 0.05 | 0.05 | 84 | 938.7 |
| 20260505175403 | 12 | 224 | 11.3 | 16.1 | 0.05 | 0.05 | 0.05 | 84 | 938.7 |
| 20260505174904 | 12 | 227 | 9.7 | 16.1 | 0.05 | 0.05 | 0.05 | 85 | 938.7 |
| 20260505173903 | 12 | 258 | 9.7 | 16.1 | 0.05 | 0.05 | 0.05 | 86 | 938.7 |
| 20260505173404 | 12 | 226 | 11.3 | 14.5 | 0.05 | 0.05 | 0.05 | 85 | 938.7 |
| 20260505172403 | 12 | 226 | 11.3 | 14.5 | 0.05 | 0.05 | 0.05 | 85 | 938.6 |
| 20260505171403 | 12 | 226 | 12.9 | 19.3 | 0.05 | 0.05 | 0.05 | 83 | 938.6 |
| 20260505170904 | 12 | 242 | 12.9 | 20.9 | 0.05 | 0.05 | 0.05 | 83 | 938.1 |
| 20260505170405 | 13 | 227 | 12.9 | 20.9 | 0.05 | 0.05 | 0.05 | 81 | 938.1 |
| 20260505165904 | 13 | 259 | 14.5 | 25.7 | 0.05 | 0.05 | 0.05 | 80 | 938.1 |
| 20260505164904 | 13 | 251 | 20.9 | 25.7 | 0.00 | 0.00 | 0.00 | 76 | 938.6 |
| 20260505164404 | 13 | 256 | 29.0 | 29.0 | 0.00 | 0.00 | 0.00 | 75 | 938.6 |
| 20260505163903 | 13 | 257 | 33.8 | 74.0 | 0.00 | 0.00 | 0.00 | 74 | 938.3 |
| 20260505163404 | 14 | 231 | 51.5 | 74.0 | 0.00 | 0.00 | 0.00 | 73 | 938.3 |
| 20260505162904 | 14 | 256 | 51.5 | 74.0 | 0.00 | 0.00 | 0.00 | 72 | 938.3 |
| 20260505162404 | 15 | 238 | 48.3 | 86.9 | 0.00 | 0.00 | 0.00 | 72 | 938.2 |
| 20260505161403 | 15 | 260 | 41.8 | 70.8 | 0.00 | 0.00 | 0.00 | 71 | 938.2 |
| 20260505160904 | 15 | 253 | 38.6 | 70.8 | 0.00 | 0.00 | 0.00 | 71 | 937.9 |
| 20260505160404 | 16 | 253 | 22.5 | 70.8 | 0.00 | 0.00 | 0.00 | 69 | 937.9 |
| 20260505151903 | 17 | 247 | 24.1 | 59.5 | 0.00 | 0.00 | 0.00 | 65 | 937.7 |
| 20260505151404 | 17 | 261 | 12.9 | 59.5 | 0.00 | 0.00 | 0.00 | 63 | 937.7 |
| 20260505150904 | 18 | 253 | 12.9 | 33.8 | 0.00 | 0.00 | 0.00 | 62 | 937.7 |
| 20260505124903 | 17 | 67 | 3.2 | 16.1 | 0.00 | 0.00 | 0.00 | 71 | 938.0 |
| 20260505124404 | 17 | 103 | 4.8 | 3.2 | 0.00 | 0.00 | 0.00 | 71 | 938.0 |
| 20260505123903 | 17 | 230 | 4.8 | 9.7 | 0.00 | 0.00 | 0.00 | 68 | 938.1 |
| 20260505123404 | 17 | 230 | 4.8 | 9.7 | 0.00 | 0.00 | 0.00 | 67 | 938.1 |
| 20260505122904 | 17 | 253 | 4.8 | 9.7 | 0.00 | 0.00 | 0.00 | 66 | 938.1 |
| 20260505122403 | 17 | 355 | 4.8 | 9.7 | 0.00 | 0.00 | 0.00 | 71 | 938.1 |
| 20260505121903 | 17 | 259 | 4.8 | 8.0 | 0.00 | 0.00 | 0.00 | 68 | 938.1 |
| 20260505121404 | 17 | 257 | 8.0 | 16.1 | 0.00 | 0.00 | 0.00 | 69 | 938.1 |
| 20260505120903 | 17 | 325 | 8.0 | 16.1 | 0.00 | 0.00 | 0.00 | 72 | 938.0 |
| 20260505120404 | 17 | 257 | 1.6 | 16.1 | 0.00 | 0.00 | 0.00 | 73 | 938.0 |
| 20260505115903 | 16 | 294 | 1.6 | 9.7 | 0.00 | 0.00 | 0.00 | 75 | 938.0 |
| 20260505115404 | 16 | 281 | 0.0 | 3.2 | 0.00 | 0.00 | 0.00 | 77 | 938.2 |
| 20260505114903 | 16 | 244 | 0.0 | 1.6 | 0.00 | 0.00 | 0.00 | 79 | 938.2 |
| 20260505114404 | 15 | 247 | 0.0 | 1.6 | 0.00 | 0.00 | 0.00 | 82 | 938.2 |
| 20260505113404 | 14 | 232 | 8.0 | 12.9 | 0.00 | 0.00 | 0.00 | 87 | 938.2 |
| 20260505112903 | 13 | 232 | 8.0 | 33.8 | 0.00 | 0.00 | 0.00 | 87 | 938.2 |
| 20260505112403 | 13 | 247 | 8.0 | 33.8 | 0.00 | 0.00 | 0.00 | 86 | 938.4 |
| 20260505111903 | 13 | 245 | 8.0 | 33.8 | 0.00 | 0.00 | 0.00 | 86 | 938.4 |
| 20260505111404 | 13 | 268 | 3.2 | 16.1 | 0.00 | 0.00 | 0.00 | 86 | 938.4 |
| 20260505110903 | 13 | 250 | 3.2 | 45.1 | 0.00 | 0.00 | 0.00 | 85 | 938.4 |
| 20260505101903 | 13 | 99 | 0.0 | 0.0 | 0.00 | 0.00 | 0.00 | 88 | 938.4 |
| 20260505100903 | 12 | 99 | 0.0 | 0.0 | 0.00 | 0.00 | 0.00 | 88 | 938.5 |
| 20260505100403 | 12 | 99 | 0.0 | 0.0 | 0.00 | 0.00 | 0.00 | 89 | 938.5 |
| 20260505095903 | 12 | 99 | 0.0 | 0.0 | 0.00 | 0.00 | 0.00 | 89 | 938.5 |
| 20260505095403 | 12 | 99 | 0.0 | 0.0 | 0.00 | 0.00 | 0.00 | 89 | 938.5 |
| 20260505094903 | 12 | 99 | 0.0 | 0.0 | 0.00 | 0.00 | 0.00 | 89 | 938.5 |
| 20260505094403 | 12 | 100 | 0.0 | 0.0 | 0.00 | 0.00 | 0.00 | 89 | 938.5 |
| 20260505093903 | 12 | 99 | 0.0 | 0.0 | 0.00 | 0.00 | 0.00 | 89 | 938.4 |
| 20260505093404 | 12 | 99 | 0.0 | 0.0 | 0.00 | 0.00 | 0.00 | 90 | 938.4 |
| 20260505092904 | 12 | 98 | 0.0 | 0.0 | 0.00 | 0.00 | 0.00 | 90 | 938.4 |
| 20260505092403 | 12 | 99 | 0.0 | 0.0 | 0.00 | 0.00 | 0.00 | 90 | 938.6 |
| 20260505091903 | 12 | 98 | 0.0 | 0.0 | 0.00 | 0.00 | 0.00 | 90 | 938.6 |
| 20260505090903 | 12 | 97 | 0.0 | 0.0 | 0.00 | 0.00 | 0.00 | 91 | 938.6 |
| 20260505090404 | 12 | 95 | 0.0 | 0.0 | 0.00 | 0.00 | 0.00 | 90 | 938.6 |
| 20260505085904 | 11 | 95 | 0.0 | 0.0 | 0.00 | 0.00 | 0.00 | 90 | 938.6 |
| 20260505085404 | 11 | 95 | 0.0 | 0.0 | 0.00 | 0.00 | 0.00 | 90 | 938.7 |
| 20260505084904 | 11 | 95 | 0.0 | 0.0 | 0.00 | 0.00 | 0.00 | 89 | 938.7 |
| 20260505083904 | 11 | 95 | 0.0 | 0.0 | 0.00 | 0.00 | 0.00 | 89 | 938.7 |
| 20260505083404 | 11 | 94 | 0.0 | 0.0 | 0.00 | 0.00 | 0.00 | 89 | 938.7 |
| 20260505082904 | 11 | 94 | 0.0 | 0.0 | 0.00 | 0.00 | 0.00 | 89 | 938.7 |
| 20260505081904 | 11 | 94 | 0.0 | 0.0 | 0.00 | 0.00 | 0.00 | 89 | 938.9 |
| 20260505080903 | 11 | 95 | 0.0 | 0.0 | 0.00 | 0.00 | 0.00 | 88 | 939.0 |
| 20260505080403 | 11 | 94 | 0.0 | 0.0 | 0.00 | 0.00 | 0.00 | 88 | 939.0 |
| 20260505075904 | 12 | 94 | 0.0 | 0.0 | 0.00 | 0.00 | 0.00 | 88 | 939.0 |
| 20260505075404 | 12 | 93 | 0.0 | 0.0 | 0.00 | 0.00 | 0.00 | 88 | 939.0 |
| 20260505073904 | 12 | 96 | 0.0 | 0.0 | 0.00 | 0.00 | 0.00 | 88 | 939.2 |
| 20260505073404 | 12 | 306 | 0.0 | 0.0 | 0.00 | 0.00 | 0.00 | 88 | 939.2 |
| 20260505072905 | 12 | 278 | 0.0 | 0.0 | 0.00 | 0.00 | 0.00 | 88 | 939.2 |
| 20260505072404 | 12 | 278 | 0.0 | 0.0 | 0.00 | 0.00 | 0.00 | 89 | 939.3 |
| 20260505071904 | 11 | 278 | 0.0 | 0.0 | 0.00 | 0.00 | 0.00 | 88 | 939.3 |
| 20260505071405 | 11 | 279 | 3.2 | 0.0 | 0.00 | 0.00 | 0.00 | 88 | 939.3 |
| 20260505070905 | 11 | 281 | 3.2 | 0.0 | 0.00 | 0.00 | 0.00 | 89 | 939.3 |
| 20260505070405 | 11 | 282 | 46.7 | 82.1 | 0.00 | 0.00 | 0.00 | 88 | 939.3 |
| 20260505065905 | 11 | 66 | 46.7 | 82.1 | 0.00 | 0.00 | 0.00 | 89 | 939.3 |
| 20260505065411 | 11 | 124 | 0.0 | 3.2 | 0.00 | 0.00 | 0.00 | 89 | 939.4 |
| 20260505064910 | 11 | 124 | 0.0 | 0.0 | 0.00 | 0.00 | 0.00 | 89 | 939.4 |
| 20260505064409 | 11 | 124 | 0.0 | 0.0 | 0.00 | 0.00 | 0.00 | 89 | 939.4 |
| 20260505063410 | 11 | 124 | 0.0 | 0.0 | 0.00 | 0.00 | 0.00 | 90 | 939.3 |
| 20260505062909 | 11 | 124 | 0.0 | 0.0 | 0.00 | 0.00 | 0.00 | 90 | 939.3 |
| 20260505062413 | 11 | 124 | 0.0 | 0.0 | 0.00 | 0.00 | 0.00 | 89 | 939.3 |
| 20260505061909 | 11 | 124 | 0.0 | 0.0 | 0.00 | 0.00 | 0.00 | 90 | 939.3 |
| 20260505061410 | 11 | 124 | 0.0 | 0.0 | 0.00 | 0.00 | 0.00 | 90 | 939.3 |
| 20260505060411 | 11 | 124 | 0.0 | 0.0 | 0.00 | 0.00 | 0.00 | 90 | 939.3 |
| 20260505055910 | 11 | 124 | 0.0 | 0.0 | 0.00 | 0.00 | 0.00 | 90 | 939.3 |
| 20260505054911 | 11 | 124 | 0.0 | 0.0 | 0.00 | 0.00 | 0.00 | 90 | 939.2 |
| 20260505053910 | 11 | 124 | 0.0 | 0.0 | 0.00 | 0.00 | 0.00 | 90 | 939.0 |
| 20260505053414 | 11 | 124 | 0.0 | 0.0 | 0.00 | 0.00 | 0.00 | 89 | 939.0 |
| 20260505052404 | 11 | 124 | 0.0 | 0.0 | 0.00 | 0.00 | 0.00 | 90 | 939.0 |
| 20260505051909 | 10 | 124 | 0.0 | 0.0 | 0.00 | 0.00 | 0.00 | 90 | 939.0 |
| 20260505051412 | 10 | 124 | 0.0 | 0.0 | 0.00 | 0.00 | 0.00 | 90 | 939.0 |
| 20260505050909 | 10 | 217 | 0.0 | 0.0 | 0.00 | 0.00 | 0.00 | 89 | 939.1 |
| 20260505040908 | 10 | 217 | 0.0 | 0.0 | 0.00 | 0.00 | 0.00 | 88 | 939.2 |
| 20260505035912 | 10 | 218 | 0.0 | 0.0 | 0.00 | 0.00 | 0.00 | 88 | 939.2 |
| 20260505035409 | 10 | 218 | 1.6 | 3.2 | 0.00 | 0.00 | 0.00 | 88 | 939.2 |
| 20260505034910 | 10 | 217 | 1.6 | 4.8 | 0.00 | 0.00 | 0.00 | 87 | 939.2 |
| 20260505034411 | 10 | 216 | 0.0 | 4.8 | 0.00 | 0.00 | 0.00 | 88 | 939.2 |
| 20260505033913 | 10 | 216 | 0.0 | 0.0 | 0.00 | 0.00 | 0.00 | 88 | 939.3 |
| 20260505033409 | 10 | 227 | 0.0 | 0.0 | 0.00 | 0.00 | 0.00 | 88 | 939.3 |
| 20260505032910 | 10 | 225 | 0.0 | 0.0 | 0.00 | 0.00 | 0.00 | 87 | 939.3 |
| 20260505032408 | 10 | 226 | 0.0 | 0.0 | 0.00 | 0.00 | 0.00 | 88 | 939.6 |
| 20260505031911 | 10 | 224 | 0.0 | 0.0 | 0.00 | 0.00 | 0.00 | 88 | 939.6 |
| 20260505030908 | 10 | 225 | 0.0 | 0.0 | 0.00 | 0.00 | 0.00 | 87 | 939.7 |
| 20260505030413 | 10 | 228 | 0.0 | 0.0 | 0.00 | 0.00 | 0.00 | 87 | 939.7 |
| 20260505025910 | 10 | 228 | 0.0 | 0.0 | 0.00 | 0.00 | 0.00 | 87 | 939.7 |
| 20260505025413 | 10 | 227 | 0.0 | 0.0 | 0.00 | 0.00 | 0.00 | 87 | 939.7 |
| 20260505024908 | 10 | 226 | 0.0 | 0.0 | 0.00 | 0.00 | 0.00 | 86 | 939.7 |
| 20260505024408 | 10 | 228 | 0.0 | 0.0 | 0.00 | 0.00 | 0.00 | 87 | 939.7 |
| 20260505023915 | 10 | 227 | 0.0 | 0.0 | 0.00 | 0.00 | 0.00 | 86 | 939.9 |
| 20260505023409 | 10 | 228 | 0.0 | 0.0 | 0.00 | 0.00 | 0.00 | 86 | 939.9 |